Hlavní strana
METAR-TAF:

METAR-TAF

Letiště :

Kédougou, Senegal

zeměpisná šířka: 12-34N, zeměpisná délka: 012-13W, výška: 178 m

Aktuální stav počasí

Zpráva byla vytvořena před 1 hodinou a 19 minutami, v 07:00 UTC
Bezvětří
Teplota 16°C
Vlhkost vzduchu 63%
Tlak 1012 hPa
Viditelnost 10 km a více
Žádná oblačnost pod 1500 m, nevyskytují se cumulonimby.

METAR: GOTK 110700Z 00000KT CAVOK 16/09 Q1012

Čas: 08:19 (08:19 UTC)


TAF: chybějící

Stav a předpovědi počasí z více než 4 000 letišť (zprávy METAR a TAF).

Červené a žluté tečky na mapě představují dostupné meteorologické stanice.

Když kurzor umístíte na tečku, zobrazí se název stanice.

Pak kliknutím zobrazíte stav a předpověď počasí.

Chcete-li změnit mapu, kliknutím na zelené tlačítko se znaménkem +mapu přiblížíte, kliknutím na zelené tlačítko se znaménkem – mapu oddálíte a kliknutím na zelené šipky přejdete na sousední mapy.


METAR-TAF: